[[{"header":{"parameterUnit":"m.s-1","parameterCategory":1,"la1":30.2991,"la2":30.254,"lo1":-89.0895,"lo2":-89.0444,"dy":0.0017,"dx":0.0017,"nx":28,"ny":28,"refTime":"2025-08-21T21:00:00:Z","depth":0,"parameterNumber":2,"parameterNumberName":"U-component_of_WINDS"},"data":[0,0,0,0,0,0,0,0,0,0,0,0,0,0,0,0,0,0,0,0,0,0,0,0,0,0,0,0,0,0,0,0,0,0,0,0,0,0,0,0,0,0,0,0,0,0,0,0,0,0,0,0,0,0,0,0,0,0,0.2477,0.2478,0,0.2574,0.2575,0.2576,0.2613,0.2612,0.2612,0.2612,0.2711,0.2713,0.2716,0,0,0,0,0,0,0,0,0,0,0,0,0,0.2324,0.2326,0.2477,0.2478,0.2479,0.2573,0.2575,0.2576,0.2613,0.2612,0.2612,0.2612,0.271,0.2713,0.2717,0,0,0,0,0,0,0,0,0,0,0,0,0,0.2402,0.2327,0.2477,0.2509,0.2513,0.2573,0.2575,0.2576,0.2613,0.2612,0.2612,0.2612,0.2709,0.2713,0.2717,0.2752,0,0,0.273,0.2732,0,0,0,0,0,0,0,0,0.2398,0.2408,0.2503,0.2507,0.2511,0.2581,0.2557,0.2635,0.2613,0.2575,0.2612,0.2611,0.2668,0.2675,0.2694,0.2757,0.2761,0.2731,0.2733,0.2735,0.2736,0,0,0,0,0,0,0,0.2392,0.2404,0.2515,0.2504,0.2509,0.2518,0.2529,0.2572,0.2622,0.2578,0.2581,0.2592,0.267,0.269,0.2697,0.2763,0.2731,0.2734,0.2737,0.2739,0.2859,0.2859,0,0,0,0,0,0,0.2382,0.2399,0.2512,0.2518,0.2452,0.2522,0.2534,0.2559,0.2622,0.2631,0.2592,0.2593,0.2683,0.2692,0.2701,0.2746,0.2735,0.2739,0.2742,0.2858,0.2859,0.2859,0,0,0,0,0,0,0.2378,0.2391,0.2508,0.2459,0.2475,0.2525,0.2553,0.2561,0.2581,0.2633,0.2642,0.2604,0.2683,0.2695,0.2739,0.275,0.2741,0.2745,0.2857,0.2858,0.2859,0.2837,0,0,0,0,0,0,0.2374,0.239,0.2404,0.2459,0.2477,0.2545,0.2553,0.2563,0.2589,0.2591,0.2646,0.2655,0.2684,0.2732,0.2743,0.2756,0.2749,0.2857,0.2858,0.2859,0.2837,0.2837,0.2837,0,0,0,0,0,0.2368,0.2394,0.2404,0.2418,0.2496,0.2546,0.2556,0.2589,0.2589,0.2604,0.2637,0.2653,0.2747,0.2737,0.2749,0.2763,0.2856,0.2858,0.2859,0.2837,0.2837,0.2837,0,0,0,0,0,0,0.2338,0.2402,0.2414,0.2459,0.2496,0.2552,0.2571,0.2588,0.2626,0.2627,0.2666,0.2678,0.2719,0.2746,0.2733,0.2801,0.2803,0.2807,0.2782,0.2782,0.2782,0.2775,0.2752,0,0,0,0,0,0.2337,0.2372,0.2425,0.2459,0.2478,0.2521,0.2544,0.2566,0.2606,0.2623,0.2659,0.2698,0.2736,0.2761,0.2799,0.2841,0.2853,0.2857,0.2856,0.2856,0.2859,0.2883,0.2885,0.2864,0.2864,0.2864,0,0,0.2334,0.2373,0.2393,0.2454,0.2486,0.2522,0.2534,0.2571,0.2598,0.2628,0.2673,0.2701,0.2746,0.279,0.2811,0.2813,0.2868,0.2858,0.2857,0.2861,0.2885,0.2887,0.2889,0.2865,0.2864,0.2864,0,0,0.2347,0.2381,0.2413,0.2444,0.2492,0.2521,0.2528,0.2581,0.2601,0.2646,0.267,0.2702,0.2767,0.2799,0.2823,0.2848,0.2864,0.286,0.286,0.2883,0.2884,0.2886,0.2895,0.2897,0.2862,0.2862,0.2862,0,0.2338,0.2393,0.2427,0.2463,0.2489,0.2518,0.2551,0.258,0.2638,0.2655,0.2657,0.2739,0.2772,0.2823,0.2829,0.2848,0.2858,0.2854,0.2881,0.2883,0.2885,0.2894,0.2897,0.2861,0.2861,0.2862,0.2862,0,0.2379,0.2416,0.2436,0.2491,0.252,0.2554,0.2593,0.2618,0.2637,0.2665,0.271,0.2751,0.2798,0.2811,0.2831,0.2865,0.2865,0.2874,0.2877,0.2886,0.2895,0.2899,0.286,0.286,0.2861,0.2861,0,0,0.2376,0.245,0.2457,0.2482,0.2537,0.2566,0.2601,0.2647,0.2667,0.2706,0.2737,0.2791,0.2799,0.2827,0.285,0.287,0.2887,0.2876,0.2878,0.2877,0.2927,0.2921,0.2924,0.2898,0.2899,0.2899,0.2923,0,0.2397,0.2461,0.2493,0.2543,0.2578,0.2606,0.2636,0.2673,0.2701,0.2734,0.2764,0.2802,0.281,0.2827,0.2848,0.288,0.2898,0.2879,0.2926,0.2928,0.2914,0.2929,0.2922,0.2943,0.2927,0.2928,0.2928,0,0.243,0.2468,0.2522,0.2573,0.2589,0.2615,0.266,0.2691,0.2734,0.2752,0.2783,0.2805,0.2843,0.2843,0.2895,0.2882,0.2903,0.2922,0.2924,0.2929,0.2928,0.2935,0.295,0.2953,0.2934,0.2934,0.2933,0,0.2422,0.2488,0.2528,0.2549,0.2609,0.2628,0.2653,0.2695,0.2721,0.2759,0.2776,0.2819,0.2842,0.2874,0.2907,0.2904,0.2956,0.2959,0.2973,0.2972,0.2982,0.2981,0.3001,0.2996,0.2996,0.2996,0.2996,0,0.2442,0.2474,0.2526,0.2551,0.2587,0.2623,0.2658,0.2686,0.2723,0.2754,0.2781,0.2809,0.2851,0.2884,0.291,0.295,0.296,0.2976,0.2982,0.2974,0.2972,0.2988,0.2987,0.2997,0.2997,0.2996,0.2996,0,0.244,0.2476,0.2522,0.2575,0.2589,0.2614,0.2659,0.2685,0.2713,0.2751,0.2763,0.2807,0.2848,0.2884,0.2938,0.2956,0.2996,0.3004,0.2981,0.2985,0.2996,0.2995,0.3028,0.3034,0.3024,0.3024,0.3024,0,0.245,0.2475,0.2531,0.2554,0.2579,0.2615,0.2641,0.2677,0.2703,0.2753,0.2772,0.2815,0.2851,0.2915,0.2952,0.2993,0.3003,0.3011,0.3009,0.2999,0.3003,0.3001,0.3003,0.3011,0.3011,0.3011,0.3011,0,0.2464,0.2481,0.2518,0.256,0.259,0.2626,0.2662,0.2679,0.2722,0.275,0.2792,0.2819,0.2874,0.2916,0.2962,0.2988,0.3007,0.3011,0.3017,0.3008,0.2994,0.3001,0.2981,0.301,0.301,0.301,0.301,0.301,0.2469,0.2493,0.2535,0.2575,0.2606,0.2639,0.2665,0.2697,0.2733,0.278,0.28,0.2842,0.2884,0.2946,0.2973,0.3007,0.301,0.3018,0.302,0.3021,0.3019,0.2988,0.3015,0.3015,0.3015,0.3015,0.3015,0,0.2485,0.2514,0.255,0.2599,0.2631,0.2645,0.2686,0.2711,0.2748,0.2785,0.282,0.2868,0.2909,0.2949,0.2992,0.3011,0.302,0.3021,0.302,0.3026,0.3014,0.3005,0.3012,0.3012,0.3012,0.3012,0.3012,0.3012,0.2496,0.2537,0.2559,0.2615,0.2643,0.2685,0.2707,0.2738,0.2768,0.282,0.2854,0.288,0.2918,0.2964,0.3002,0.3013,0.3027,0.3025,0.3038,0.3027,0.3026,0.3026,0.3018,0.3028,0.3028,0.3047,0.3048,0.3048]},{"header":{"parameterUnit":"m.s-1","parameterCategory":1,"la1":30.2991,"la2":30.254,"lo1":-89.0895,"lo2":-89.0444,"dy":0.0017,"dx":0.0017,"nx":28,"ny":28,"refTime":"2025-08-21T21:00:00:Z","depth":0,"parameterNumber":3,"parameterNumberName":"V-component_of_WINDS"},"data":[0,0,0,0,0,0,0,0,0,0,0,0,0,0,0,0,0,0,0,0,0,0,0,0,0,0,0,0,0,0,0,0,0,0,0,0,0,0,0,0,0,0,0,0,0,0,0,0,0,0,0,0,0,0,0,0,0,0,2.4512,2.4512,0,2.4502,2.4501,2.4501,2.4491,2.4491,2.449,2.449,2.4479,2.4479,2.4479,0,0,0,0,0,0,0,0,0,0,0,0,0,2.4523,2.4523,2.4512,2.4512,2.4512,2.4502,2.4501,2.4501,2.4491,2.4491,2.449,2.449,2.4479,2.4479,2.4479,0,0,0,0,0,0,0,0,0,0,0,0,0,2.4516,2.4523,2.4512,2.4506,2.4505,2.4502,2.4501,2.4501,2.4491,2.4491,2.449,2.449,2.4479,2.4479,2.4479,2.4481,0,0,2.4478,2.4478,0,0,0,0,0,0,0,0,2.4517,2.4516,2.4507,2.4506,2.4505,2.4497,2.4501,2.4494,2.4491,2.4496,2.449,2.449,2.4485,2.4484,2.4483,2.4481,2.448,2.4478,2.4478,2.4477,2.4477,0,0,0,0,0,0,0,2.4517,2.4516,2.4508,2.4507,2.4506,2.4503,2.4502,2.45,2.4492,2.4496,2.4495,2.4494,2.4485,2.4483,2.4482,2.448,2.4478,2.4478,2.4477,2.4477,2.4478,2.4479,0,0,0,0,0,0,2.4519,2.4517,2.4508,2.4508,2.4511,2.4503,2.4501,2.45,2.4492,2.449,2.4494,2.4493,2.4484,2.4483,2.4482,2.4484,2.4477,2.4477,2.4477,2.4478,2.4478,2.4479,0,0,0,0,0,0,2.4519,2.4518,2.4509,2.4512,2.4511,2.4503,2.4501,2.45,2.4498,2.4491,2.4489,2.4494,2.4483,2.4482,2.4481,2.4483,2.4477,2.4477,2.4478,2.4478,2.4479,2.4488,0,0,0,0,0,0,2.4519,2.4518,2.4519,2.4512,2.451,2.4508,2.4501,2.45,2.4498,2.4497,2.449,2.4489,2.4483,2.4482,2.4481,2.4483,2.4477,2.4478,2.4478,2.4478,2.4487,2.4489,2.449,0,0,0,0,0,2.452,2.4522,2.4519,2.4518,2.4512,2.4509,2.4508,2.4501,2.4498,2.4499,2.4494,2.4489,2.4483,2.4482,2.4481,2.4483,2.4478,2.4478,2.4478,2.4487,2.4488,2.449,0,0,0,0,0,0,2.453,2.4521,2.4518,2.4518,2.4514,2.4507,2.4508,2.4503,2.45,2.4499,2.4491,2.449,2.4489,2.4486,2.4484,2.4484,2.448,2.448,2.4487,2.4488,2.4489,2.4489,2.4476,0,0,0,0,0,2.4532,2.4531,2.4523,2.4524,2.4522,2.4515,2.4514,2.4509,2.4505,2.4503,2.4498,2.4494,2.4491,2.4489,2.4486,2.4487,2.4485,2.4488,2.4489,2.449,2.449,2.449,2.449,2.448,2.448,2.448,0,0,2.4537,2.4532,2.4531,2.4526,2.4522,2.4521,2.4514,2.4513,2.4511,2.4503,2.4501,2.4497,2.4492,2.4492,2.4491,2.4489,2.4492,2.449,2.4491,2.4491,2.449,2.4491,2.4492,2.448,2.448,2.448,0,0,2.4544,2.4541,2.4541,2.4537,2.4532,2.4527,2.4527,2.4521,2.4518,2.4516,2.451,2.4508,2.4503,2.45,2.4497,2.4503,2.4498,2.4502,2.4508,2.4507,2.4508,2.4509,2.451,2.4511,2.4503,2.4503,2.4503,0,2.4551,2.4548,2.4542,2.454,2.4538,2.4531,2.4531,2.4527,2.4521,2.452,2.4517,2.4511,2.4507,2.4505,2.4507,2.4505,2.4505,2.4503,2.4509,2.4509,2.451,2.4511,2.4512,2.4503,2.4503,2.4503,2.4503,0,2.4556,2.4554,2.4555,2.4549,2.4547,2.4547,2.454,2.4538,2.4534,2.4529,2.4528,2.4523,2.4518,2.4518,2.4513,2.4515,2.4514,2.451,2.4505,2.4511,2.4512,2.4513,2.4504,2.4504,2.4504,2.4503,0,0,2.4569,2.456,2.456,2.4557,2.4551,2.4549,2.4548,2.4544,2.4543,2.4539,2.4537,2.4534,2.453,2.4527,2.4522,2.4522,2.4527,2.4518,2.4518,2.452,2.4528,2.453,2.4531,2.4523,2.4524,2.4524,2.4528,0,2.4575,2.4573,2.4567,2.4567,2.4565,2.4557,2.4556,2.4552,2.4548,2.4545,2.4541,2.4538,2.4534,2.4532,2.4531,2.4526,2.4528,2.4526,2.4522,2.4522,2.4523,2.4532,2.4534,2.4539,2.4528,2.4528,2.4528,0,2.4582,2.4578,2.4578,2.4571,2.457,2.4569,2.4564,2.4562,2.4557,2.4554,2.4551,2.4546,2.4544,2.454,2.4537,2.4536,2.4533,2.4531,2.4531,2.453,2.4525,2.453,2.454,2.4541,2.4529,2.4529,2.4529,0,2.4591,2.4586,2.4585,2.4583,2.4575,2.4574,2.4571,2.4566,2.4564,2.456,2.4558,2.4554,2.4551,2.4548,2.4542,2.454,2.454,2.4535,2.4537,2.4537,2.4537,2.4537,2.4546,2.4536,2.4536,2.4536,2.4536,0,2.4598,2.4597,2.4589,2.4588,2.4587,2.458,2.458,2.4576,2.4571,2.4569,2.4563,2.4561,2.4553,2.4551,2.4546,2.4544,2.4543,2.454,2.4539,2.454,2.4541,2.4539,2.4538,2.4536,2.4536,2.4536,2.4536,0,2.4608,2.4602,2.46,2.4593,2.4591,2.4591,2.4584,2.4583,2.4579,2.4576,2.4575,2.4568,2.4564,2.4558,2.4553,2.4549,2.4548,2.4546,2.455,2.4549,2.4551,2.455,2.4558,2.4559,2.455,2.455,2.455,0,2.4612,2.4612,2.4604,2.4603,2.46,2.4597,2.4595,2.4588,2.4586,2.458,2.4579,2.4575,2.4572,2.4566,2.456,2.4556,2.4554,2.4557,2.4553,2.4555,2.4553,2.4553,2.4553,2.4557,2.4558,2.4558,2.4558,0,2.4621,2.4618,2.4615,2.4611,2.4608,2.4604,2.4601,2.4599,2.4592,2.459,2.4586,2.4583,2.4578,2.4574,2.4568,2.4565,2.456,2.4559,2.4559,2.4561,2.4563,2.4561,2.4552,2.4559,2.4559,2.4559,2.4559,2.4558,2.4627,2.4627,2.4621,2.4618,2.4615,2.4611,2.4609,2.4605,2.4602,2.4597,2.4593,2.4589,2.4584,2.4577,2.4573,2.457,2.4568,2.4568,2.4568,2.4568,2.4568,2.4563,2.4569,2.4569,2.4569,2.4569,2.4569,0,2.4635,2.4631,2.4629,2.4623,2.4621,2.4617,2.4612,2.461,2.4607,2.4603,2.4599,2.4595,2.4591,2.4585,2.458,2.4579,2.4576,2.4578,2.4577,2.4576,2.4571,2.4571,2.458,2.458,2.458,2.458,2.458,2.458,2.4639,2.4637,2.4634,2.463,2.4626,2.4623,2.462,2.4617,2.4613,2.4609,2.4605,2.4602,2.4596,2.4591,2.4587,2.4585,2.4584,2.4586,2.4583,2.4578,2.4577,2.4576,2.4576,2.4585,2.4585,2.4589,2.4589,2.4589]}]]